CW7625 Weather Reports


Display with metric or nautical units.
time (UTC)temp
F
wind
direction
speed
MPH
gust
MPH
rain 1hr
in
rain 24hr
in
rain mn
in
humidity
%
barometer
mb
20260904163106 92 196 3.0 9.0 0.00 0.00 0.00 63 1013.7
20260904162107 91 233 1.0 4.0 0.00 0.00 0.00 58 1013.8
20260904161106 90 51 1.0 5.0 0.00 0.00 0.00 60 1013.8
20260904160107 90 133 2.0 8.0 0.00 0.00 0.00 64 1013.8
20260904155106 89 285 3.0 6.0 0.00 0.00 0.00 67 1013.9
20260904154107 89 229 0.0 6.0 0.00 0.00 0.00 67 1013.9
20260904153107 88 161 1.0 5.0 0.00 0.00 0.00 69 1013.9
20260904151106 88 212 3.0 6.0 0.00 0.00 0.00 72 1013.9
20260904145107 87 182 2.0 7.0 0.00 0.00 0.00 74 1013.9
20260904144107 86 198 1.0 5.0 0.00 0.00 0.00 77 1013.9
20260904143106 86 232 1.0 6.0 0.00 0.00 0.00 75 1014.0
20260904142107 86 195 0.0 3.0 0.00 0.00 0.00 76 1013.9
20260904141106 85 225 0.0 3.0 0.00 0.00 0.00 76 1013.7
20260904140107 84 225 0.0 0.0 0.00 0.00 0.00 78 1013.7
20260904134107 82 225 0.0 0.0 0.00 0.00 0.00 83 1013.8
20260904133107 80 225 0.0 0.0 0.00 0.00 0.00 86 1013.7
20260904132107 78 225 0.0 0.0 0.00 0.00 0.00 89 1013.6
20260904131107 76 225 0.0 0.0 0.00 0.00 0.00 90 1013.5
20260904130107 75 225 0.0 0.0 0.00 0.00 0.00 91 1013.5
20260904125107 74 225 0.0 0.0 0.00 0.00 0.00 92 1013.4
20260904123106 71 225 0.0 0.0 0.00 0.00 0.00 92 1013.2
20260904122107 71 225 0.0 0.0 0.00 0.00 0.00 91 1013.1
20260904121107 71 225 0.0 0.0 0.00 0.00 0.00 92 1013.0
20260904120107 71 225 0.0 0.0 0.00 0.00 0.00 91 1012.8
20260904115107 71 225 0.0 0.0 0.00 0.00 0.00 91 1012.7
20260904114107 71 225 0.0 0.0 0.00 0.00 0.00 91 1012.7
20260904113107 71 225 0.0 0.0 0.00 0.00 0.00 91 1012.6
20260904112107 72 225 0.0 0.0 0.00 0.00 0.00 91 1012.6
20260904110107 72 225 0.0 0.0 0.00 0.00 0.00 91 1012.6
20260904105107 72 225 0.0 0.0 0.00 0.00 0.00 91 1012.4
20260904104107 72 225 0.0 0.0 0.00 0.00 0.00 91 1012.6
20260904103107 72 225 0.0 0.0 0.00 0.00 0.00 91 1012.5
20260904102107 73 225 0.0 0.0 0.00 0.00 0.00 91 1012.4
20260904101107 73 225 0.0 0.0 0.00 0.00 0.00 91 1012.4
20260904100107 73 225 0.0 0.0 0.00 0.00 0.00 90 1012.5
20260904095107 73 225 0.0 0.0 0.00 0.00 0.00 90 1012.4
20260904094107 73 225 0.0 0.0 0.00 0.00 0.00 90 1012.4
20260904093107 74 225 0.0 0.0 0.00 0.00 0.00 90 1012.1
20260904091107 74 225 0.0 0.0 0.00 0.00 0.00 90 1012.1
20260904090107 74 225 0.0 0.0 0.00 0.00 0.00 90 1012.0
20260904084107 74 225 0.0 0.0 0.00 0.00 0.00 90 1012.0
20260904083107 74 225 0.0 0.0 0.00 0.00 0.00 89 1011.8
20260904082107 75 225 0.0 0.0 0.00 0.00 0.00 89 1011.8
20260904081107 75 225 0.0 0.0 0.00 0.00 0.00 89 1011.6
20260904080107 75 225 0.0 0.0 0.00 0.00 0.00 89 1011.5
20260904075107 75 225 0.0 0.0 0.00 0.00 0.00 89 1011.5
20260904074107 75 225 0.0 0.0 0.00 0.00 0.00 88 1011.5
20260904073107 76 225 0.0 0.0 0.00 0.00 0.00 88 1011.4
20260904072107 76 225 0.0 0.0 0.00 0.00 0.00 88 1011.6
20260904071107 76 225 0.0 0.0 0.00 0.00 0.00 88 1011.5
20260904070107 76 225 0.0 0.0 0.00 0.00 0.00 87 1011.5
20260904065108 77 225 0.0 0.0 0.00 0.00 0.00 86 1011.6
20260904064107 77 225 0.0 0.0 0.00 0.00 0.00 86 1011.6
20260904061108 78 225 0.0 0.0 0.00 0.00 0.00 84 1011.6
20260904060107 79 225 0.0 0.0 0.00 0.00 0.00 84 1011.6
20260904055108 79 225 0.0 0.0 0.00 0.00 0.00 83 1011.6
20260904054107 80 225 0.0 0.0 0.00 0.00 0.00 82 1011.6
20260904053107 80 225 0.0 1.0 0.00 0.00 0.00 82 1011.5
20260904052107 81 225 0.0 0.0 0.00 0.00 0.00 80 1011.5
20260904051107 81 225 0.0 0.0 0.00 0.00 0.00 79 1011.4
20260904050108 82 225 0.0 0.0 0.00 0.00 0.00 79 1011.4
20260904042107 83 225 0.0 0.0 0.00 0.00 0.00 77 1011.4
20260904041108 83 225 0.0 0.0 0.00 0.00 0.00 77 1011.4
20260904040107 83 225 0.0 0.0 0.00 0.00 0.00 76 1011.4
20260904035108 83 225 0.0 0.0 0.00 0.00 0.00 75 1011.4
20260904033107 84 225 0.0 0.0 0.00 0.00 0.00 74 1011.3
20260904032107 84 225 0.0 0.0 0.00 0.00 0.00 73 1011.3
20260904031108 85 225 0.0 0.0 0.00 0.00 0.00 72 1011.3
20260904030108 86 225 0.0 0.0 0.00 0.00 0.00 71 1011.2
20260904024108 86 225 4.0 4.0 0.00 0.00 0.00 69 1011.2
20260904023107 87 225 1.0 4.0 0.00 0.00 0.00 69 1011.1
20260904021107 87 225 1.0 3.0 0.00 0.00 0.00 68 1010.9
20260904020108 88 276 1.0 3.0 0.00 0.00 0.00 67 1010.8
20260904013107 87 213 0.0 0.0 0.00 0.00 0.00 67 1010.2
20260904012107 88 213 0.0 1.0 0.00 0.00 0.00 65 1010.0
20260904010107 89 213 0.0 0.0 0.00 0.00 0.00 64 1009.7
20260904005108 90 213 0.0 0.0 0.00 0.00 0.00 63 1009.6
20260904004108 91 213 0.0 2.0 0.00 0.00 0.00 60 1009.4
20260904002107 92 111 3.0 6.0 0.00 0.00 0.00 58 1009.4
20260904001107 92 71 1.0 5.0 0.00 0.00 0.00 57 1009.4
20260904000108 93 88 1.0 7.0 0.00 0.00 0.00 56 1009.5
20260903235108 93 55 1.0 9.0 0.00 0.00 0.00 56 1009.4
20260903233108 93 40 2.0 9.0 0.00 0.00 0.00 56 1009.5
20260903232108 94 117 6.0 11.0 0.00 0.00 0.00 55 1009.3
20260903231107 94 61 5.0 10.0 0.00 0.00 0.00 55 1009.4
20260903230108 94 99 10.0 10.0 0.00 0.00 0.00 55 1009.3
20260903225107 94 73 4.0 10.0 0.00 0.00 0.00 55 1009.4
20260903224108 94 92 4.0 13.0 0.00 0.00 0.00 55 1009.4
20260903223108 94 83 3.0 13.0 0.00 0.00 0.00 55 1009.4
20260903222108 95 57 5.0 12.0 0.00 0.00 0.00 54 1009.4
20260903221108 94 76 4.0 11.0 0.00 0.00 0.00 55 1009.5
20260903220108 94 67 5.0 6.0 0.00 0.00 0.00 57 1009.6
20260903215108 94 78 2.0 11.0 0.00 0.00 0.00 55 1009.9
20260903214108 96 40 5.0 11.0 0.00 0.00 0.00 52 1010.0
20260903213108 96 187 3.0 9.0 0.00 0.00 0.00 51 1010.0
20260903212108 95 193 3.0 10.0 0.00 0.00 0.00 51 1010.2
20260903211108 96 41 5.0 8.0 0.00 0.00 0.00 51 1010.2
20260903210108 96 229 4.0 7.0 0.00 0.00 0.00 51 1010.3
20260903205108 95 148 1.0 6.0 0.00 0.00 0.00 51 1010.3
20260903204108 95 191 2.0 10.0 0.00 0.00 0.00 50 1010.6
20260903203108 95 249 0.0 9.0 0.00 0.00 0.00 52 1010.7
20260903202108 95 70 2.0 8.0 0.00 0.00 0.00 56 1010.9
20260903201108 93 232 1.0 8.0 0.00 0.00 0.00 56 1011.0
20260903195108 94 307 3.0 7.0 0.00 0.00 0.00 54 1011.2
20260903194108 93 205 1.0 6.0 0.00 0.00 0.00 55 1011.2
20260903193108 93 96 3.0 8.0 0.00 0.00 0.00 58 1011.3
20260903190108 93 259 4.0 9.0 0.00 0.00 0.00 59 1011.7
20260903185108 92 207 2.0 9.0 0.00 0.00 0.00 59 1011.9
20260903183108 92 71 8.0 12.0 0.00 0.00 0.00 58 1012.1
20260903182108 93 71 5.0 11.0 0.00 0.00 0.00 57 1012.2
20260903175108 92 234 3.0 6.0 0.00 0.00 0.00 61 1012.4
20260903173108 91 169 6.0 8.0 0.00 0.00 0.00 63 1012.7
20260903172108 91 232 8.0 8.0 0.00 0.00 0.00 64 1012.7
20260903170108 90 173 5.0 11.0 0.00 0.00 0.00 64 1013.0
20260903165108 89 31 1.0 9.0 0.00 0.00 0.00 65 1013.1
20260903164108 90 252 2.0 9.0 0.00 0.00 0.00 65 1013.4